Location: Dammartin
(48.9032°N, 1.6195°E)
Time: 14:41:06
(UTC+00:00)

Cosmos 1544 Rocket - Pass Details

Date: 03 February 2023
Orbit: 604 x 628 km, 82.5° (Epoch: 29 March)

Event Time Altitude Azimuth Distance (km) Brightness Sun altitude
Rises 17:20:26 0° 348° (NNW) 2,873 6.9 -4.9°
Reaches altitude 10° 17:22:39 10° 346° (NNW) 1,964 6.1 -5.2°
Maximum altitude 17:26:58 71° 264° (W) 643 3.9 -5.9°
Drops below altitude 10° 17:31:16 10° 180° (S) 1,952 6.4 -6.6°
Sets 17:33:29 0° 178° (S) 2,854 7.2 -6.9°
